Location: Mannheim
(49.4880°N, 8.4650°E)
Time: 06:00:32
(UTC+02:00)

ACS3 Solar Sail - Pass Details

Date: 21 September 2024
Orbit: 963 x 1036 km, 97.4° (Epoch: 04 October)

Event Time Altitude Azimuth Distance (km) Brightness Sun altitude
Exits shadow 21:27:43 18° 165° (SSE) 2,305 3.4 -20.0°
Maximum altitude 21:32:45 90° 262° (W) 1,044 1.9 -20.8°
Drops below altitude 10° 21:39:13 10° 347° (NNW) 2,841 4.8 -21.7°
Sets 21:41:43 0° 348° (NNW) 3,792 5.5 -22.1°
